Wetterdaten: Donnerstag, 26.07.2012
Datum Zeit Temperatur Luftfeuchte Regen Wind Richtung Richtung Taupunkt Windchill Windben
26.07.2012 00:00 14,3 C 92 % 0,0 l/m 0,0 km/h (0 Bft) S 180 13,0 C 14,5 C 0,0 km/h (0 Bft)
26.07.2012 00:05 14,0 C 92 % 0,0 l/m 0,0 km/h (0 Bft) O-SO 112 12,7 C 14,4 C 0,0 km/h (0 Bft)
26.07.2012 00:10 13,9 C 92 % 0,0 l/m 0,2 km/h (0 Bft) N 360 12,6 C 14,3 C 0,0 km/h (0 Bft)
26.07.2012 00:15 13,8 C 92 % 0,0 l/m 0,2 km/h (0 Bft) N 360 12,5 C 14,1 C 0,0 km/h (0 Bft)
26.07.2012 00:20 13,9 C 92 % 0,0 l/m 0,0 km/h (0 Bft) W 270 12,6 C 14,1 C 0,0 km/h (0 Bft)
26.07.2012 00:25 13,7 C 92 % 0,0 l/m 0,0 km/h (0 Bft) O-NO 67 12,4 C 14,1 C 0,0 km/h (0 Bft)
26.07.2012 00:30 13,9 C 92 % 0,0 l/m 0,0 km/h (0 Bft) S-SW 202 12,6 C 14,1 C 0,0 km/h (0 Bft)
26.07.2012 00:35 13,9 C 92 % 0,0 l/m 0,0 km/h (0 Bft) N 360 12,6 C 14,2 C 0,0 km/h (0 Bft)
26.07.2012 00:40 13,9 C 92 % 0,0 l/m 0,3 km/h (0 Bft) SO 135 12,6 C 14,2 C 0,0 km/h (0 Bft)
26.07.2012 00:45 13,9 C 92 % 0,0 l/m 0,5 km/h (0 Bft) S-SW 202 12,6 C 14,2 C 0,0 km/h (0 Bft)
26.07.2012 00:50 13,8 C 92 % 0,0 l/m 0,6 km/h (0 Bft) S 180 12,5 C 14,2 C 3,2 km/h (1 Bft)
26.07.2012 00:55 13,7 C 92 % 0,0 l/m 0,6 km/h (0 Bft) S 180 12,4 C 14,2 C 1,8 km/h (1 Bft)
26.07.2012 01:00 13,9 C 92 % 0,0 l/m 0,2 km/h (0 Bft) S-SO 157 12,6 C 14,2 C 4,0 km/h (1 Bft)
26.07.2012 01:05 13,9 C 92 % 0,0 l/m 0,3 km/h (0 Bft) SO 135 12,6 C 14,2 C 0,0 km/h (0 Bft)
26.07.2012 01:10 13,8 C 92 % 0,0 l/m 0,3 km/h (0 Bft) O-SO 112 12,5 C 14,2 C 0,0 km/h (0 Bft)
26.07.2012 01:15 14,1 C 92 % 0,0 l/m 0,0 km/h (0 Bft) N-NW 337 12,8 C 14,2 C 0,0 km/h (0 Bft)
26.07.2012 01:20 14,1 C 92 % 0,0 l/m 0,0 km/h (0 Bft) SO 135 12,8 C 14,2 C 0,0 km/h (0 Bft)
26.07.2012 01:25 14,2 C 92 % 0,0 l/m 0,0 km/h (0 Bft) N 360 12,9 C 14,3 C 0,0 km/h (0 Bft)
26.07.2012 01:30 14,3 C 92 % 0,0 l/m 0,2 km/h (0 Bft) O 90 13,0 C 14,5 C 3,1 km/h (1 Bft)
26.07.2012 01:35 14,5 C 92 % 0,0 l/m 0,5 km/h (0 Bft) S 180 13,2 C 14,7 C 2,3 km/h (1 Bft)
26.07.2012 01:40 14,5 C 92 % 0,0 l/m 0,6 km/h (0 Bft) S 180 13,2 C 14,9 C 0,0 km/h (0 Bft)
26.07.2012 01:45 14,4 C 92 % 0,0 l/m 0,3 km/h (0 Bft) SO 135 13,1 C 14,9 C 0,0 km/h (0 Bft)
26.07.2012 01:50 14,4 C 92 % 0,0 l/m 0,2 km/h (0 Bft) S 180 13,1 C 14,9 C 2,7 km/h (1 Bft)
26.07.2012 01:55 14,4 C 92 % 0,0 l/m 0,2 km/h (0 Bft) SO 135 13,1 C 15,0 C 1,6 km/h (1 Bft)
26.07.2012 02:00 14,5 C 92 % 0,0 l/m 0,3 km/h (0 Bft) W-SW 247 13,2 C 15,0 C 0,0 km/h (0 Bft)
26.07.2012 02:05 14,6 C 92 % 0,0 l/m 0,2 km/h (0 Bft) N-NW 337 13,3 C 15,0 C 0,0 km/h (0 Bft)
26.07.2012 02:10 14,6 C 92 % 0,0 l/m 0,0 km/h (0 Bft) N 360 13,3 C 14,9 C 0,0 km/h (0 Bft)
26.07.2012 02:15 14,5 C 92 % 0,0 l/m 0,0 km/h (0 Bft) W-NW 292 13,2 C 14,8 C 0,0 km/h (0 Bft)
26.07.2012 02:20 14,7 C 91 % 0,0 l/m 1,0 km/h (0 Bft) W-SW 247 13,2 C 14,9 C 4,5 km/h (1 Bft)
26.07.2012 02:25 15,0 C 90 % 0,0 l/m 1,9 km/h (1 Bft) S 180 13,4 C 15,0 C 3,5 km/h (1 Bft)
26.07.2012 02:30 15,1 C 89 % 0,0 l/m 2,9 km/h (1 Bft) W 270 13,3 C 15,2 C 8,4 km/h (2 Bft)
26.07.2012 02:35 14,9 C 89 % 0,0 l/m 3,9 km/h (1 Bft) W-SW 247 13,1 C 15,2 C 2,7 km/h (1 Bft)
26.07.2012 02:40 14,9 C 89 % 0,0 l/m 3,2 km/h (1 Bft) SO 135 13,1 C 15,0 C 9,5 km/h (2 Bft)
26.07.2012 02:45 14,7 C 89 % 0,0 l/m 1,4 km/h (1 Bft) N 360 12,9 C 14,9 C 0,0 km/h (0 Bft)
26.07.2012 02:50 14,5 C 89 % 0,0 l/m 0,5 km/h (0 Bft) N-NO 22 12,7 C 14,7 C 0,0 km/h (0 Bft)
26.07.2012 02:55 14,1 C 89 % 0,0 l/m 0,2 km/h (0 Bft) O 90 12,3 C 14,4 C 0,0 km/h (0 Bft)
26.07.2012 03:00 14,0 C 89 % 0,0 l/m 0,5 km/h (0 Bft) O-SO 112 12,2 C 14,2 C 2,3 km/h (1 Bft)
26.07.2012 03:05 14,0 C 90 % 0,0 l/m 1,1 km/h (1 Bft) N-NW 337 12,4 C 14,1 C 0,0 km/h (0 Bft)
26.07.2012 03:10 13,9 C 90 % 0,0 l/m 0,8 km/h (0 Bft) O-SO 112 12,3 C 14,0 C 0,0 km/h (0 Bft)
26.07.2012 03:15 13,7 C 90 % 0,0 l/m 0,0 km/h (0 Bft) NO 45 12,1 C 13,9 C 0,0 km/h (0 Bft)
26.07.2012 03:20 13,6 C 90 % 0,0 l/m 0,0 km/h (0 Bft) O 90 12,0 C 13,7 C 0,0 km/h (0 Bft)
26.07.2012 03:25 13,5 C 91 % 0,0 l/m 0,0 km/h (0 Bft) N-NO 22 12,1 C 13,6 C 0,0 km/h (0 Bft)
26.07.2012 03:30 13,5 C 91 % 0,0 l/m 0,0 km/h (0 Bft) O 90 12,1 C 13,5 C 0,0 km/h (0 Bft)
26.07.2012 03:35 13,4 C 91 % 0,0 l/m 0,0 km/h (0 Bft) S 180 12,0 C 13,5 C 0,0 km/h (0 Bft)
26.07.2012 03:40 13,5 C 91 % 0,0 l/m 0,0 km/h (0 Bft) O-SO 112 12,1 C 13,6 C 0,0 km/h (0 Bft)
26.07.2012 03:45 13,6 C 91 % 0,0 l/m 0,0 km/h (0 Bft) SO 135 12,2 C 13,7 C 0,0 km/h (0 Bft)
26.07.2012 03:50 13,7 C 91 % 0,0 l/m 0,0 km/h (0 Bft) O-SO 112 12,3 C 13,8 C 0,0 km/h (0 Bft)
26.07.2012 03:55 13,9 C 92 % 0,0 l/m 0,0 km/h (0 Bft) N-NO 22 12,6 C 14,0 C 0,0 km/h (0 Bft)
26.07.2012 04:00 14,0 C 91 % 0,0 l/m 0,0 km/h (0 Bft) S 180 12,6 C 14,0 C 0,0 km/h (0 Bft)
26.07.2012 04:05 13,7 C 91 % 0,0 l/m 0,0 km/h (0 Bft) S 180 12,3 C 14,0 C 0,0 km/h (0 Bft)
26.07.2012 04:10 13,7 C 91 % 0,0 l/m 0,0 km/h (0 Bft) SO 135 12,3 C 14,0 C 0,0 km/h (0 Bft)
26.07.2012 04:15 13,7 C 92 % 0,0 l/m 0,0 km/h (0 Bft) N 360 12,4 C 14,1 C 0,0 km/h (0 Bft)
26.07.2012 04:20 13,7 C 91 % 0,0 l/m 0,0 km/h (0 Bft) O-SO 112 12,3 C 14,2 C 0,0 km/h (0 Bft)
26.07.2012 04:25 14,0 C 91 % 0,0 l/m 0,3 km/h (0 Bft) S-SO 157 12,6 C 14,4 C 2,9 km/h (1 Bft)
26.07.2012 04:30 14,0 C 91 % 0,0 l/m 0,5 km/h (0 Bft) W-NW 292 12,6 C 14,5 C 0,0 km/h (0 Bft)
26.07.2012 04:35 14,0 C 91 % 0,0 l/m 0,3 km/h (0 Bft) W-NW 292 12,6 C 14,5 C 0,0 km/h (0 Bft)
26.07.2012 04:40 13,8 C 91 % 0,0 l/m 0,2 km/h (0 Bft) N-NO 22 12,4 C 14,3 C 0,0 km/h (0 Bft)
26.07.2012 04:45 13,7 C 91 % 0,0 l/m 0,2 km/h (0 Bft) N-NW 337 12,3 C 14,1 C 0,0 km/h (0 Bft)
26.07.2012 04:50 13,6 C 91 % 0,0 l/m 0,2 km/h (0 Bft) O-SO 112 12,2 C 13,9 C 0,0 km/h (0 Bft)
26.07.2012 04:55 13,3 C 91 % 0,0 l/m 0,2 km/h (0 Bft) N 360 11,9 C 13,7 C 0,0 km/h (0 Bft)
26.07.2012 05:00 13,0 C 91 % 0,0 l/m 0,0 km/h (0 Bft) S 180 11,6 C 13,6 C 0,0 km/h (0 Bft)
26.07.2012 05:05 13,2 C 91 % 0,0 l/m 0,3 km/h (0 Bft) N 360 11,8 C 13,3 C 1,9 km/h (1 Bft)
26.07.2012 05:10 13,1 C 91 % 0,0 l/m 0,6 km/h (0 Bft) S-SO 157 11,7 C 13,3 C 3,1 km/h (1 Bft)
26.07.2012 05:15 13,2 C 91 % 0,0 l/m 0,6 km/h (0 Bft) N-NO 22 11,8 C 13,3 C 1,8 km/h (1 Bft)
26.07.2012 05:20 13,3 C 91 % 0,0 l/m 1,1 km/h (1 Bft) S-SO 157 11,9 C 13,4 C 0,0 km/h (0 Bft)
26.07.2012 05:25 13,2 C 91 % 0,0 l/m 1,6 km/h (1 Bft) S 180 11,8 C 13,4 C 2,1 km/h (1 Bft)
26.07.2012 05:30 13,2 C 92 % 0,0 l/m 0,8 km/h (0 Bft) W-SW 247 11,9 C 13,4 C 0,0 km/h (0 Bft)
26.07.2012 05:35 13,3 C 91 % 0,0 l/m 0,8 km/h (0 Bft) N 360 11,9 C 13,5 C 2,1 km/h (1 Bft)
26.07.2012 05:40 13,4 C 91 % 0,0 l/m 1,1 km/h (1 Bft) O-SO 112 12,0 C 13,7 C 0,0 km/h (0 Bft)
26.07.2012 05:45 13,3 C 92 % 0,0 l/m 1,1 km/h (1 Bft) S-SO 157 12,0 C 13,8 C 0,0 km/h (0 Bft)
26.07.2012 05:50 13,3 C 92 % 0,0 l/m 0,6 km/h (0 Bft) S-SO 157 12,0 C 13,8 C 1,6 km/h (1 Bft)
26.07.2012 05:55 13,3 C 92 % 0,0 l/m 0,2 km/h (0 Bft) S 180 12,0 C 13,7 C 1,8 km/h (1 Bft)
26.07.2012 06:00 13,4 C 92 % 0,0 l/m 0,2 km/h (0 Bft) NO 45 12,1 C 13,7 C 0,0 km/h (0 Bft)
26.07.2012 06:05 13,4 C 92 % 0,0 l/m 0,2 km/h (0 Bft) SO 135 12,1 C 13,7 C 1,6 km/h (1 Bft)
26.07.2012 06:10 13,4 C 92 % 0,0 l/m 0,3 km/h (0 Bft) SO 135 12,1 C 13,8 C 1,6 km/h (1 Bft)
26.07.2012 06:15 13,5 C 92 % 0,0 l/m 0,3 km/h (0 Bft) NO 45 12,2 C 14,0 C 0,0 km/h (0 Bft)
26.07.2012 06:20 13,7 C 92 % 0,0 l/m 0,3 km/h (0 Bft) N 360 12,4 C 14,2 C 0,0 km/h (0 Bft)
26.07.2012 06:25 13,8 C 91 % 0,0 l/m 0,6 km/h (0 Bft) S 180 12,4 C 14,2 C 3,1 km/h (1 Bft)
26.07.2012 06:30 13,9 C 91 % 0,0 l/m 0,6 km/h (0 Bft) SO 135 12,5 C 14,3 C 0,0 km/h (0 Bft)
26.07.2012 06:35 13,9 C 91 % 0,0 l/m 0,5 km/h (0 Bft) O-NO 67 12,5 C 14,3 C 0,0 km/h (0 Bft)
26.07.2012 06:40 14,0 C 91 % 0,0 l/m 0,2 km/h (0 Bft) S-SO 157 12,6 C 14,3 C 0,0 km/h (0 Bft)
26.07.2012 06:45 14,2 C 91 % 0,0 l/m 0,0 km/h (0 Bft) N 360 12,8 C 14,5 C 0,0 km/h (0 Bft)
26.07.2012 06:50 14,9 C 91 % 0,0 l/m 0,3 km/h (0 Bft) SO 135 13,4 C 14,7 C 0,0 km/h (0 Bft)
26.07.2012 06:55 15,7 C 89 % 0,0 l/m 0,8 km/h (0 Bft) SO 135 13,9 C 15,7 C 0,0 km/h (0 Bft)
26.07.2012 07:00 15,6 C 89 % 0,0 l/m 0,8 km/h (0 Bft) S-SO 157 13,8 C 16,2 C 2,1 km/h (1 Bft)
26.07.2012 07:05 15,6 C 88 % 0,0 l/m 0,6 km/h (0 Bft) S 180 13,6 C 16,3 C 0,0 km/h (0 Bft)
26.07.2012 07:10 15,7 C 88 % 0,0 l/m 0,5 km/h (0 Bft) S-SW 202 13,7 C 16,4 C 0,0 km/h (0 Bft)
26.07.2012 07:15 16,0 C 88 % 0,0 l/m 0,2 km/h (0 Bft) S 180 14,0 C 16,7 C 2,3 km/h (1 Bft)
26.07.2012 07:20 16,0 C 88 % 0,0 l/m 0,3 km/h (0 Bft) S-SO 157 14,0 C 16,7 C 0,0 km/h (0 Bft)
26.07.2012 07:25 16,1 C 86 % 0,0 l/m 0,3 km/h (0 Bft) O-NO 67 13,8 C 16,7 C 0,0 km/h (0 Bft)
26.07.2012 07:30 16,1 C 87 % 0,0 l/m 0,2 km/h (0 Bft) SO 135 13,9 C 16,7 C 0,0 km/h (0 Bft)
26.07.2012 07:35 16,2 C 86 % 0,0 l/m 0,5 km/h (0 Bft) W-SW 247 13,9 C 16,9 C 2,9 km/h (1 Bft)
26.07.2012 07:40 16,3 C 86 % 0,0 l/m 0,5 km/h (0 Bft) NO 45 14,0 C 16,9 C 0,0 km/h (0 Bft)
26.07.2012 07:45 16,7 C 85 % 0,0 l/m 0,2 km/h (0 Bft) S-SW 202 14,2 C 17,1 C 0,0 km/h (0 Bft)
26.07.2012 07:50 16,7 C 84 % 0,0 l/m 0,3 km/h (0 Bft) N-NW 337 14,0 C 17,3 C 0,0 km/h (0 Bft)
26.07.2012 07:55 16,9 C 85 % 0,0 l/m 0,8 km/h (0 Bft) S 180 14,4 C 17,4 C 2,3 km/h (1 Bft)
26.07.2012 08:00 16,8 C 85 % 0,0 l/m 0,6 km/h (0 Bft) S-SO 157 14,3 C 17,5 C 0,0 km/h (0 Bft)
26.07.2012 08:05 16,8 C 86 % 0,0 l/m 0,5 km/h (0 Bft) S 180 14,4 C 17,5 C 1,8 km/h (1 Bft)
26.07.2012 08:10 16,6 C 86 % 0,0 l/m 0,2 km/h (0 Bft) SW 225 14,2 C 17,4 C 0,0 km/h (0 Bft)
26.07.2012 08:15 16,6 C 86 % 0,0 l/m 0,2 km/h (0 Bft) SW 225 14,2 C 17,3 C 1,6 km/h (1 Bft)
26.07.2012 08:20 16,7 C 86 % 0,0 l/m 0,2 km/h (0 Bft) O-SO 112 14,3 C 17,3 C 0,0 km/h (0 Bft)
26.07.2012 08:25 17,2 C 85 % 0,0 l/m 0,2 km/h (0 Bft) NO 45 14,7 C 17,6 C 0,0 km/h (0 Bft)
26.07.2012 08:30 18,0 C 85 % 0,0 l/m 0,0 km/h (0 Bft) NO 45 16,2 C 18,4 C 0,0 km/h (0 Bft)
26.07.2012 08:35 18,5 C 83 % 0,0 l/m 0,3 km/h (0 Bft) SO 135 16,1 C 19,7 C 0,0 km/h (0 Bft)
26.07.2012 08:40 18,9 C 83 % 0,0 l/m 0,3 km/h (0 Bft) O-SO 112 16,5 C 20,4 C 0,0 km/h (0 Bft)
26.07.2012 08:45 19,2 C 82 % 0,0 l/m 0,0 km/h (0 Bft) S 180 16,3 C 21,0 C 0,0 km/h (0 Bft)
26.07.2012 08:50 19,8 C 82 % 0,0 l/m 0,0 km/h (0 Bft) S-SW 202 18,2 C 21,5 C 0,0 km/h (0 Bft)
26.07.2012 08:55 20,6 C 79 % 0,0 l/m 0,5 km/h (0 Bft) S-SO 157 18,1 C 23,0 C 1,8 km/h (1 Bft)
26.07.2012 09:00 21,2 C 71 % 0,0 l/m 0,5 km/h (0 Bft) N 360 18,0 C 24,2 C 0,0 km/h (0 Bft)
26.07.2012 09:05 22,3 C 70 % 0,0 l/m 0,3 km/h (0 Bft) SW 225 19,7 C 26,5 C 0,0 km/h (0 Bft)
26.07.2012 09:10 22,5 C 68 % 0,0 l/m 0,3 km/h (0 Bft) O 90 18,9 C 27,8 C 2,6 km/h (1 Bft)
26.07.2012 09:15 23,5 C 60 % 0,0 l/m 1,9 km/h (1 Bft) O 90 19,1 C 28,7 C 2,4 km/h (1 Bft)
26.07.2012 09:20 23,7 C 56 % 0,0 l/m 3,1 km/h (1 Bft) O 90 18,4 C 28,9 C 4,5 km/h (1 Bft)
26.07.2012 09:25 23,9 C 58 % 0,0 l/m 3,2 km/h (1 Bft) N-NO 22 17,9 C 28,3 C 3,4 km/h (1 Bft)
26.07.2012 09:30 24,0 C 54 % 0,0 l/m 2,6 km/h (1 Bft) O-SO 112 17,3 C 28,6 C 3,4 km/h (1 Bft)
26.07.2012 09:35 24,3 C 56 % 0,0 l/m 2,4 km/h (1 Bft) SO 135 17,5 C 28,3 C 2,3 km/h (1 Bft)
26.07.2012 09:40 24,5 C 54 % 0,0 l/m 2,6 km/h (1 Bft) O-SO 112 17,3 C 28,2 C 0,0 km/h (0 Bft)
26.07.2012 09:45 24,7 C 54 % 0,0 l/m 2,4 km/h (1 Bft) SO 135 17,5 C 28,7 C 2,7 km/h (1 Bft)
26.07.2012 09:50 24,7 C 55 % 0,0 l/m 1,9 km/h (1 Bft) O-SO 112 17,0 C 28,5 C 2,6 km/h (1 Bft)
26.07.2012 09:55 25,1 C 55 % 0,0 l/m 1,8 km/h (1 Bft) O 90 17,7 C 28,9 C 0,0 km/h (0 Bft)
26.07.2012 10:00 25,5 C 52 % 0,0 l/m 1,9 km/h (1 Bft) W-SW 247 17,5 C 29,5 C 3,2 km/h (1 Bft)
26.07.2012 10:05 25,6 C 52 % 0,0 l/m 1,9 km/h (1 Bft) NO 45 17,3 C 29,9 C 2,1 km/h (1 Bft)
26.07.2012 10:10 25,7 C 50 % 0,0 l/m 1,4 km/h (1 Bft) SO 135 15,9 C 29,6 C 3,7 km/h (1 Bft)
26.07.2012 10:15 25,7 C 55 % 0,0 l/m 0,6 km/h (0 Bft) SO 135 16,3 C 30,1 C 5,5 km/h (1 Bft)
26.07.2012 10:20 25,7 C 56 % 0,0 l/m 1,3 km/h (1 Bft) O-SO 112 16,4 C 29,4 C 3,7 km/h (1 Bft)
26.07.2012 10:25 25,5 C 56 % 0,0 l/m 2,4 km/h (1 Bft) NO 45 16,2 C 28,3 C 1,6 km/h (1 Bft)
26.07.2012 10:30 26,4 C 52 % 0,0 l/m 1,8 km/h (1 Bft) O-SO 112 17,0 C 28,7 C 2,9 km/h (1 Bft)
26.07.2012 10:35 27,2 C 47 % 0,0 l/m 2,1 km/h (1 Bft) SO 135 16,7 C 30,5 C 4,8 km/h (1 Bft)
26.07.2012 10:40 27,5 C 47 % 0,0 l/m 2,6 km/h (1 Bft) O-SO 112 16,4 C 31,0 C 7,1 km/h (2 Bft)
26.07.2012 10:45 27,7 C 43 % 0,0 l/m 3,1 km/h (1 Bft) O-SO 112 14,6 C 30,7 C 2,6 km/h (1 Bft)
26.07.2012 10:50 27,9 C 44 % 0,0 l/m 3,4 km/h (1 Bft) SO 135 14,7 C 30,9 C 3,9 km/h (1 Bft)
26.07.2012 10:55 27,9 C 45 % 0,0 l/m 3,2 km/h (1 Bft) W-NW 292 15,1 C 30,7 C 1,9 km/h (1 Bft)
26.07.2012 11:00 28,1 C 44 % 0,0 l/m 3,1 km/h (1 Bft) S-SW 202 14,9 C 30,9 C 2,6 km/h (1 Bft)
26.07.2012 11:05 28,4 C 46 % 0,0 l/m 2,1 km/h (1 Bft) O-SO 112 16,0 C 31,3 C 3,2 km/h (1 Bft)
26.07.2012 11:10 28,5 C 45 % 0,0 l/m 2,6 km/h (1 Bft) O-SO 112 15,9 C 31,4 C 4,5 km/h (1 Bft)
26.07.2012 11:15 28,8 C 44 % 0,0 l/m 2,6 km/h (1 Bft) S-SO 157 15,5 C 31,2 C 0,0 km/h (0 Bft)
26.07.2012 11:20 28,8 C 43 % 0,0 l/m 2,4 km/h (1 Bft) O-SO 112 15,0 C 31,4 C 2,1 km/h (1 Bft)
26.07.2012 11:25 28,8 C 43 % 0,0 l/m 1,6 km/h (1 Bft) SW 225 15,0 C 31,8 C 5,5 km/h (1 Bft)
26.07.2012 11:30 28,4 C 42 % 0,0 l/m 2,6 km/h (1 Bft) S 180 14,2 C 31,4 C 5,0 km/h (1 Bft)
26.07.2012 11:35 27,9 C 44 % 0,0 l/m 4,0 km/h (1 Bft) S 180 14,5 C 30,9 C 4,5 km/h (1 Bft)
26.07.2012 11:40 28,3 C 44 % 0,0 l/m 3,5 km/h (1 Bft) S 180 14,9 C 30,7 C 2,7 km/h (1 Bft)
26.07.2012 11:45 28,1 C 43 % 0,0 l/m 2,6 km/h (1 Bft) W-NW 292 14,3 C 31,0 C 2,1 km/h (1 Bft)
26.07.2012 11:50 28,5 C 45 % 0,0 l/m 2,3 km/h (1 Bft) O-NO 67 15,4 C 31,2 C 2,4 km/h (1 Bft)
26.07.2012 11:55 29,0 C 42 % 0,0 l/m 2,7 km/h (1 Bft) S-SO 157 14,8 C 31,4 C 6,9 km/h (2 Bft)
26.07.2012 12:00 28,9 C 42 % 0,0 l/m 2,4 km/h (1 Bft) S-SW 202 14,7 C 31,3 C 2,6 km/h (1 Bft)
26.07.2012 12:05 29,2 C 44 % 0,0 l/m 3,4 km/h (1 Bft) S 180 15,7 C 31,3 C 5,6 km/h (1 Bft)
26.07.2012 12:10 28,9 C 44 % 0,0 l/m 2,9 km/h (1 Bft) S 180 15,4 C 31,2 C 4,8 km/h (1 Bft)
26.07.2012 12:15 29,5 C 43 % 0,0 l/m 2,4 km/h (1 Bft) N-NW 337 15,6 C 31,3 C 0,0 km/h (0 Bft)
26.07.2012 12:20 29,2 C 43 % 0,0 l/m 2,3 km/h (1 Bft) S 180 15,3 C 31,7 C 3,5 km/h (1 Bft)
26.07.2012 12:25 29,3 C 42 % 0,0 l/m 2,4 km/h (1 Bft) W-SW 247 15,0 C 31,7 C 3,5 km/h (1 Bft)
26.07.2012 12:30 29,7 C 43 % 0,0 l/m 3,1 km/h (1 Bft) S 180 15,8 C 31,7 C 3,4 km/h (1 Bft)
26.07.2012 12:35 29,9 C 42 % 0,0 l/m 2,9 km/h (1 Bft) S-SO 157 15,6 C 32,0 C 5,1 km/h (1 Bft)
26.07.2012 12:40 29,6 C 43 % 0,0 l/m 2,9 km/h (1 Bft) SO 135 15,7 C 31,9 C 2,1 km/h (1 Bft)
26.07.2012 12:45 29,7 C 41 % 0,0 l/m 2,4 km/h (1 Bft) W-SW 247 15,0 C 32,3 C 3,7 km/h (1 Bft)
26.07.2012 12:50 29,7 C 43 % 0,0 l/m 1,4 km/h (1 Bft) SO 135 15,8 C 32,9 C 1,9 km/h (1 Bft)
26.07.2012 12:55 29,8 C 42 % 0,0 l/m 1,1 km/h (1 Bft) N-NW 337 15,5 C 33,7 C 0,0 km/h (0 Bft)
26.07.2012 13:00 30,3 C 43 % 0,0 l/m 1,6 km/h (1 Bft) S 180 16,3 C 34,0 C 8,2 km/h (2 Bft)
26.07.2012 13:05 30,5 C 40 % 0,0 l/m 2,7 km/h (1 Bft) NW 315 15,3 C 33,3 C 0,0 km/h (0 Bft)
26.07.2012 13:10 30,0 C 41 % 0,0 l/m 4,5 km/h (1 Bft) O-SO 112 15,3 C 33,1 C 7,7 km/h (2 Bft)
26.07.2012 13:15 29,8 C 41 % 0,0 l/m 4,3 km/h (1 Bft) SO 135 15,1 C 32,2 C 3,5 km/h (1 Bft)
26.07.2012 13:20 29,7 C 43 % 0,0 l/m 4,0 km/h (1 Bft) SO 135 15,8 C 32,3 C 2,1 km/h (1 Bft)
26.07.2012 13:25 29,4 C 42 % 0,0 l/m 2,6 km/h (1 Bft) W-NW 292 15,1 C 32,6 C 4,5 km/h (1 Bft)
26.07.2012 13:30 28,4 C 45 % 0,0 l/m 3,1 km/h (1 Bft) S-SW 202 15,3 C 31,9 C 4,0 km/h (1 Bft)
26.07.2012 13:35 29,5 C 44 % 0,0 l/m 3,9 km/h (1 Bft) S 180 15,9 C 31,3 C 5,5 km/h (1 Bft)
26.07.2012 13:40 29,8 C 41 % 0,0 l/m 3,4 km/h (1 Bft) N-NW 337 15,1 C 31,3 C 5,5 km/h (1 Bft)
26.07.2012 13:45 29,4 C 39 % 0,0 l/m 3,9 km/h (1 Bft) W-SW 247 14,0 C 31,4 C 4,2 km/h (1 Bft)
26.07.2012 13:50 29,7 C 40 % 0,0 l/m 3,7 km/h (1 Bft) SO 135 14,6 C 31,7 C 3,1 km/h (1 Bft)
26.07.2012 13:55 30,0 C 39 % 0,0 l/m 3,9 km/h (1 Bft) S-SO 157 14,5 C 32,1 C 3,7 km/h (1 Bft)
26.07.2012 14:00 30,0 C 39 % 0,0 l/m 3,9 km/h (1 Bft) O-SO 112 14,5 C 32,1 C 3,5 km/h (1 Bft)
26.07.2012 14:05 29,8 C 41 % 0,0 l/m 3,7 km/h (1 Bft) SO 135 15,1 C 32,2 C 3,5 km/h (1 Bft)
26.07.2012 14:10 29,4 C 41 % 0,0 l/m 3,4 km/h (1 Bft) NO 45 14,7 C 32,0 C 5,3 km/h (1 Bft)
26.07.2012 14:15 29,8 C 42 % 0,0 l/m 2,1 km/h (1 Bft) S 180 15,5 C 32,6 C 2,9 km/h (1 Bft)
26.07.2012 14:20 30,6 C 40 % 0,0 l/m 1,9 km/h (1 Bft) S 180 15,4 C 33,1 C 1,9 km/h (1 Bft)
26.07.2012 14:25 30,0 C 42 % 0,0 l/m 2,4 km/h (1 Bft) SO 135 15,7 C 33,6 C 2,6 km/h (1 Bft)
26.07.2012 14:30 30,2 C 39 % 0,0 l/m 2,9 km/h (1 Bft) S 180 14,7 C 33,7 C 6,6 km/h (2 Bft)
26.07.2012 14:35 30,4 C 39 % 0,0 l/m 3,7 km/h (1 Bft) SO 135 14,9 C 33,4 C 6,4 km/h (2 Bft)
26.07.2012 14:40 30,8 C 41 % 0,0 l/m 3,5 km/h (1 Bft) SW 225 16,0 C 33,3 C 8,4 km/h (2 Bft)
26.07.2012 14:45 30,2 C 39 % 0,0 l/m 3,1 km/h (1 Bft) N-NO 22 14,7 C 33,3 C 3,9 km/h (1 Bft)
26.07.2012 14:50 30,4 C 39 % 0,0 l/m 2,9 km/h (1 Bft) W-NW 292 14,9 C 33,4 C 2,6 km/h (1 Bft)
26.07.2012 14:55 30,4 C 39 % 0,0 l/m 2,4 km/h (1 Bft) W-NW 292 14,9 C 34,0 C 7,2 km/h (2 Bft)
26.07.2012 15:00 30,2 C 38 % 0,0 l/m 1,8 km/h (1 Bft) S 180 14,3 C 34,1 C 1,9 km/h (1 Bft)
26.07.2012 15:05 30,9 C 39 % 0,0 l/m 1,4 km/h (1 Bft) W-NW 292 15,3 C 34,8 C 4,5 km/h (1 Bft)
26.07.2012 15:10 29,9 C 39 % 0,0 l/m 1,3 km/h (1 Bft) W-NW 292 14,4 C 34,9 C 2,7 km/h (1 Bft)
26.07.2012 15:15 30,1 C 41 % 0,0 l/m 1,3 km/h (1 Bft) W 270 15,4 C 34,9 C 0,0 km/h (0 Bft)
26.07.2012 15:20 30,0 C 38 % 0,0 l/m 1,4 km/h (1 Bft) W-NW 292 14,1 C 35,2 C 7,9 km/h (2 Bft)
26.07.2012 15:25 28,7 C 40 % 0,0 l/m 2,4 km/h (1 Bft) W-NW 292 13,7 C 34,2 C 5,0 km/h (1 Bft)
26.07.2012 15:30 28,2 C 42 % 0,0 l/m 3,1 km/h (1 Bft) S 180 14,0 C 32,5 C 6,8 km/h (2 Bft)
26.07.2012 15:35 29,4 C 42 % 0,0 l/m 2,7 km/h (1 Bft) N-NW 337 15,1 C 32,5 C 3,5 km/h (1 Bft)
26.07.2012 15:40 29,7 C 45 % 0,0 l/m 2,1 km/h (1 Bft) S-SO 157 16,5 C 32,9 C 1,8 km/h (1 Bft)
26.07.2012 15:45 29,5 C 40 % 0,0 l/m 2,3 km/h (1 Bft) W-NW 292 14,5 C 33,7 C 6,4 km/h (2 Bft)
26.07.2012 15:50 29,2 C 39 % 0,0 l/m 2,6 km/h (1 Bft) NO 45 13,8 C 33,4 C 2,1 km/h (1 Bft)
26.07.2012 15:55 29,7 C 38 % 0,0 l/m 2,7 km/h (1 Bft) N-NW 337 13,8 C 33,4 C 2,7 km/h (1 Bft)
26.07.2012 16:00 29,3 C 39 % 0,0 l/m 1,4 km/h (1 Bft) O-SO 112 13,9 C 33,8 C 0,0 km/h (0 Bft)
26.07.2012 16:05 29,5 C 37 % 0,0 l/m 0,8 km/h (0 Bft) NO 45 13,3 C 34,5 C 3,4 km/h (1 Bft)
26.07.2012 16:10 29,5 C 39 % 0,0 l/m 1,1 km/h (1 Bft) W-NW 292 14,1 C 34,7 C 4,2 km/h (1 Bft)
26.07.2012 16:15 30,0 C 37 % 0,0 l/m 1,4 km/h (1 Bft) O-SO 112 13,7 C 34,9 C 3,1 km/h (1 Bft)
26.07.2012 16:20 29,9 C 38 % 0,0 l/m 1,6 km/h (1 Bft) NO 45 14,0 C 34,9 C 2,9 km/h (1 Bft)
26.07.2012 16:25 29,4 C 40 % 0,0 l/m 1,8 km/h (1 Bft) W 270 14,4 C 34,8 C 3,5 km/h (1 Bft)
26.07.2012 16:30 29,3 C 39 % 0,0 l/m 2,6 km/h (1 Bft) S-SW 202 13,9 C 34,3 C 3,2 km/h (1 Bft)
26.07.2012 16:35 29,4 C 40 % 0,0 l/m 3,2 km/h (1 Bft) W-SW 247 14,4 C 33,8 C 0,0 km/h (0 Bft)
26.07.2012 16:40 29,3 C 40 % 0,0 l/m 2,7 km/h (1 Bft) S 180 14,3 C 33,7 C 1,9 km/h (1 Bft)
26.07.2012 16:45 28,4 C 40 % 0,0 l/m 2,4 km/h (1 Bft) N-NW 337 13,5 C 33,6 C 2,6 km/h (1 Bft)
26.07.2012 16:50 28,1 C 43 % 0,0 l/m 2,1 km/h (1 Bft) NW 315 14,3 C 33,8 C 5,0 km/h (1 Bft)
26.07.2012 16:55 27,7 C 44 % 0,0 l/m 2,7 km/h (1 Bft) W-SW 247 14,3 C 33,3 C 6,0 km/h (2 Bft)
26.07.2012 17:00 27,5 C 44 % 0,0 l/m 2,7 km/h (1 Bft) W 270 14,1 C 33,1 C 0,0 km/h (0 Bft)
26.07.2012 17:05 27,6 C 43 % 0,0 l/m 3,1 km/h (1 Bft) N-NW 337 13,9 C 33,3 C 4,8 km/h (1 Bft)
26.07.2012 17:10 27,2 C 44 % 0,0 l/m 2,6 km/h (1 Bft) N 360 13,9 C 33,1 C 2,3 km/h (1 Bft)
26.07.2012 17:15 27,0 C 45 % 0,0 l/m 2,3 km/h (1 Bft) N 360 14,0 C 33,2 C 2,6 km/h (1 Bft)
26.07.2012 17:20 26,8 C 47 % 0,0 l/m 1,3 km/h (1 Bft) N-NO 22 14,5 C 33,6 C 0,0 km/h (0 Bft)
26.07.2012 17:25 26,7 C 47 % 0,0 l/m 1,8 km/h (1 Bft) W-SW 247 14,4 C 33,8 C 6,3 km/h (2 Bft)
26.07.2012 17:30 27,0 C 48 % 0,0 l/m 2,6 km/h (1 Bft) S 180 15,0 C 33,4 C 2,4 km/h (1 Bft)
26.07.2012 17:35 26,8 C 48 % 0,0 l/m 1,9 km/h (1 Bft) N 360 14,9 C 33,6 C 0,0 km/h (0 Bft)
26.07.2012 17:40 26,7 C 48 % 0,0 l/m 1,4 km/h (1 Bft) W 270 14,8 C 33,6 C 0,0 km/h (0 Bft)
26.07.2012 17:45 26,6 C 48 % 0,0 l/m 1,3 km/h (1 Bft) W-SW 247 14,7 C 33,8 C 2,6 km/h (1 Bft)
26.07.2012 17:50 26,5 C 49 % 0,0 l/m 1,9 km/h (1 Bft) S-SO 157 14,9 C 33,6 C 4,5 km/h (1 Bft)
26.07.2012 17:55 26,6 C 48 % 0,0 l/m 3,1 km/h (1 Bft) N-NW 337 14,7 C 33,0 C 1,6 km/h (1 Bft)
26.07.2012 18:00 26,4 C 49 % 0,0 l/m 2,7 km/h (1 Bft) S-SW 202 14,8 C 32,7 C 0,0 km/h (0 Bft)
26.07.2012 18:05 26,5 C 49 % 0,0 l/m 1,3 km/h (1 Bft) SO 135 14,9 C 33,2 C 1,9 km/h (1 Bft)
26.07.2012 18:10 26,3 C 50 % 0,0 l/m 1,0 km/h (0 Bft) S 180 15,0 C 33,5 C 3,9 km/h (1 Bft)
26.07.2012 18:15 26,6 C 47 % 0,0 l/m 2,9 km/h (1 Bft) W-NW 292 14,3 C 32,7 C 3,4 km/h (1 Bft)
26.07.2012 18:20 26,5 C 48 % 0,0 l/m 2,6 km/h (1 Bft) SO 135 14,6 C 32,6 C 0,0 km/h (0 Bft)
26.07.2012 18:25 26,4 C 48 % 0,0 l/m 0,8 km/h (0 Bft) SO 135 14,5 C 33,0 C 1,9 km/h (1 Bft)
26.07.2012 18:30 26,5 C 48 % 0,0 l/m 1,3 km/h (1 Bft) S 180 14,6 C 33,1 C 4,0 km/h (1 Bft)
26.07.2012 18:35 26,6 C 46 % 0,0 l/m 2,1 km/h (1 Bft) S 180 14,0 C 32,7 C 3,4 km/h (1 Bft)
26.07.2012 18:40 26,5 C 47 % 0,0 l/m 2,1 km/h (1 Bft) W-SW 247 14,3 C 32,6 C 0,0 km/h (0 Bft)
26.07.2012 18:45 26,4 C 48 % 0,0 l/m 1,0 km/h (0 Bft) W-SW 247 14,5 C 32,8 C 1,6 km/h (1 Bft)
26.07.2012 18:50 26,3 C 47 % 0,0 l/m 0,6 km/h (0 Bft) NW 315 14,1 C 32,9 C 3,1 km/h (1 Bft)
26.07.2012 18:55 26,1 C 48 % 0,0 l/m 1,3 km/h (1 Bft) N-NW 337 14,2 C 32,4 C 3,5 km/h (1 Bft)
26.07.2012 19:00 25,9 C 49 % 0,0 l/m 1,9 km/h (1 Bft) N-NW 337 14,4 C 32,0 C 3,5 km/h (1 Bft)
26.07.2012 19:05 25,7 C 51 % 0,0 l/m 1,3 km/h (1 Bft) N 360 14,8 C 31,6 C 0,0 km/h (0 Bft)
26.07.2012 19:10 25,6 C 51 % 0,0 l/m 1,0 km/h (0 Bft) N-NW 337 14,7 C 31,5 C 2,4 km/h (1 Bft)
26.07.2012 19:15 25,3 C 53 % 0,0 l/m 0,8 km/h (0 Bft) N 360 15,0 C 31,2 C 0,0 km/h (0 Bft)
26.07.2012 19:20 25,2 C 54 % 0,0 l/m 0,3 km/h (0 Bft) N-NW 337 15,2 C 31,1 C 1,9 km/h (1 Bft)
26.07.2012 19:25 24,8 C 55 % 0,0 l/m 0,0 km/h (0 Bft) N-NW 337 15,1 C 30,7 C 0,0 km/h (0 Bft)
26.07.2012 19:30 24,7 C 56 % 0,0 l/m 0,2 km/h (0 Bft) N 360 15,3 C 30,5 C 0,0 km/h (0 Bft)
26.07.2012 19:35 24,6 C 56 % 0,0 l/m 0,3 km/h (0 Bft) N 360 15,2 C 29,9 C 0,0 km/h (0 Bft)
26.07.2012 19:40 24,5 C 56 % 0,0 l/m 0,3 km/h (0 Bft) N-NO 22 15,1 C 29,5 C 0,0 km/h (0 Bft)
26.07.2012 19:45 24,6 C 55 % 0,0 l/m 0,2 km/h (0 Bft) NO 45 14,9 C 28,9 C 0,0 km/h (0 Bft)
26.07.2012 19:50 24,5 C 56 % 0,0 l/m 0,0 km/h (0 Bft) NO 45 15,1 C 28,7 C 0,0 km/h (0 Bft)
26.07.2012 19:55 24,2 C 57 % 0,0 l/m 0,2 km/h (0 Bft) NO 45 15,1 C 28,2 C 1,6 km/h (1 Bft)
26.07.2012 20:00 24,0 C 57 % 0,0 l/m 0,2 km/h (0 Bft) NO 45 14,9 C 27,7 C 0,0 km/h (0 Bft)
26.07.2012 20:05 23,8 C 59 % 0,0 l/m 0,6 km/h (0 Bft) N 360 15,3 C 27,1 C 2,9 km/h (1 Bft)
26.07.2012 20:10 23,4 C 59 % 0,0 l/m 0,6 km/h (0 Bft) N 360 14,9 C 26,5 C 0,0 km/h (0 Bft)
26.07.2012 20:15 23,1 C 60 % 0,0 l/m 0,2 km/h (0 Bft) N-NW 337 14,9 C 25,6 C 0,0 km/h (0 Bft)
26.07.2012 20:20 22,8 C 63 % 0,0 l/m 0,0 km/h (0 Bft) N 360 15,4 C 25,0 C 0,0 km/h (0 Bft)
26.07.2012 20:25 22,3 C 64 % 0,0 l/m 0,0 km/h (0 Bft) N-NO 22 15,2 C 24,3 C 0,0 km/h (0 Bft)
26.07.2012 20:30 22,1 C 65 % 0,0 l/m 0,0 km/h (0 Bft) N 360 15,2 C 23,7 C 0,0 km/h (0 Bft)
26.07.2012 20:35 21,9 C 65 % 0,0 l/m 0,2 km/h (0 Bft) N-NO 22 15,0 C 23,1 C 2,1 km/h (1 Bft)
26.07.2012 20:40 21,6 C 66 % 0,0 l/m 0,3 km/h (0 Bft) N-NO 22 15,0 C 22,7 C 0,0 km/h (0 Bft)
26.07.2012 20:45 21,3 C 66 % 0,0 l/m 0,3 km/h (0 Bft) N-NO 22 14,7 C 22,0 C 0,0 km/h (0 Bft)
26.07.2012 20:50 21,0 C 66 % 0,0 l/m 0,3 km/h (0 Bft) N-NO 22 14,4 C 21,5 C 0,0 km/h (0 Bft)
26.07.2012 20:55 20,2 C 69 % 0,0 l/m 0,2 km/h (0 Bft) O 90 14,3 C 20,7 C 0,0 km/h (0 Bft)
26.07.2012 21:00 20,0 C 69 % 0,0 l/m 0,0 km/h (0 Bft) N-NO 22 14,1 C 20,3 C 0,0 km/h (0 Bft)
26.07.2012 21:05 19,6 C 72 % 0,0 l/m 0,5 km/h (0 Bft) N-NO 22 14,4 C 19,7 C 2,6 km/h (1 Bft)
26.07.2012 21:10 19,8 C 71 % 0,0 l/m 1,0 km/h (0 Bft) O 90 14,4 C 19,6 C 0,0 km/h (0 Bft)
26.07.2012 21:15 20,1 C 70 % 0,0 l/m 1,3 km/h (1 Bft) O-SO 112 14,5 C 19,5 C 2,1 km/h (1 Bft)
26.07.2012 21:20 20,0 C 70 % 0,0 l/m 1,0 km/h (0 Bft) N-NO 22 14,4 C 19,5 C 2,3 km/h (1 Bft)
26.07.2012 21:25 19,1 C 72 % 0,0 l/m 0,3 km/h (0 Bft) N-NO 22 13,9 C 19,1 C 0,0 km/h (0 Bft)
26.07.2012 21:30 18,9 C 73 % 0,0 l/m 0,5 km/h (0 Bft) N 360 13,9 C 18,8 C 0,0 km/h (0 Bft)
26.07.2012 21:35 19,1 C 72 % 0,0 l/m 0,2 km/h (0 Bft) N-NO 22 13,9 C 18,5 C 0,0 km/h (0 Bft)
26.07.2012 21:40 19,1 C 72 % 0,0 l/m 0,0 km/h (0 Bft) NO 45 13,9 C 18,4 C 0,0 km/h (0 Bft)
26.07.2012 21:45 18,5 C 73 % 0,0 l/m 0,0 km/h (0 Bft) NW 315 13,6 C 18,2 C 0,0 km/h (0 Bft)
26.07.2012 21:50 18,0 C 74 % 0,0 l/m 0,0 km/h (0 Bft) W-NW 292 13,3 C 18,1 C 0,0 km/h (0 Bft)
26.07.2012 21:55 17,6 C 76 % 0,0 l/m 0,0 km/h (0 Bft) W-SW 247 13,3 C 17,7 C 0,0 km/h (0 Bft)
26.07.2012 22:00 17,4 C 77 % 0,0 l/m 0,0 km/h (0 Bft) NW 315 13,3 C 17,5 C 0,0 km/h (0 Bft)
26.07.2012 22:05 17,4 C 79 % 0,0 l/m 0,0 km/h (0 Bft) N 360 13,7 C 17,2 C 0,0 km/h (0 Bft)
26.07.2012 22:10 17,2 C 78 % 0,0 l/m 0,0 km/h (0 Bft) S 180 13,3 C 17,1 C 0,0 km/h (0 Bft)
26.07.2012 22:15 17,1 C 78 % 0,0 l/m 0,0 km/h (0 Bft) NO 45 13,2 C 17,0 C 0,0 km/h (0 Bft)
26.07.2012 22:20 17,0 C 78 % 0,0 l/m 0,0 km/h (0 Bft) NO 45 13,1 C 16,9 C 0,0 km/h (0 Bft)
26.07.2012 22:25 17,3 C 78 % 0,0 l/m 0,0 km/h (0 Bft) N-NO 22 13,4 C 16,8 C 0,0 km/h (0 Bft)
26.07.2012 22:30 17,4 C 78 % 0,0 l/m 0,0 km/h (0 Bft) NO 45 13,5 C 16,9 C 0,0 km/h (0 Bft)
26.07.2012 22:35 17,4 C 77 % 0,0 l/m 0,0 km/h (0 Bft) NO 45 13,3 C 17,0 C 0,0 km/h (0 Bft)
26.07.2012 22:40 17,4 C 77 % 0,0 l/m 0,0 km/h (0 Bft) NO 45 13,3 C 17,0 C 0,0 km/h (0 Bft)
26.07.2012 22:45 17,2 C 77 % 0,0 l/m 0,0 km/h (0 Bft) W-NW 292 13,1 C 17,1 C 0,0 km/h (0 Bft)
26.07.2012 22:50 17,2 C 77 % 0,0 l/m 0,0 km/h (0 Bft) N-NO 22 13,1 C 17,1 C 0,0 km/h (0 Bft)
26.07.2012 22:55 17,0 C 77 % 0,0 l/m 0,0 km/h (0 Bft) W-NW 292 12,9 C 17,0 C 0,0 km/h (0 Bft)
26.07.2012 23:00 17,0 C 78 % 0,0 l/m 0,0 km/h (0 Bft) W-SW 247 13,1 C 16,9 C 0,0 km/h (0 Bft)
26.07.2012 23:05 16,8 C 78 % 0,0 l/m 0,0 km/h (0 Bft) S-SW 202 12,9 C 16,8 C 0,0 km/h (0 Bft)
26.07.2012 23:10 16,8 C 78 % 0,0 l/m 0,0 km/h (0 Bft) W-SW 247 12,9 C 16,7 C 0,0 km/h (0 Bft)
26.07.2012 23:15 16,6 C 78 % 0,0 l/m 0,0 km/h (0 Bft) N-NO 22 12,7 C 16,7 C 0,0 km/h (0 Bft)
26.07.2012 23:20 16,5 C 79 % 0,0 l/m 0,0 km/h (0 Bft) S 180 12,8 C 16,6 C 0,0 km/h (0 Bft)
26.07.2012 23:25 16,6 C 79 % 0,0 l/m 0,0 km/h (0 Bft) W-SW 247 12,9 C 16,6 C 0,0 km/h (0 Bft)
26.07.2012 23:30 16,5 C 79 % 0,0 l/m 0,0 km/h (0 Bft) W-SW 247 12,8 C 16,6 C 0,0 km/h (0 Bft)
26.07.2012 23:35 16,6 C 79 % 0,0 l/m 0,0 km/h (0 Bft) O-SO 112 12,9 C 16,6 C 0,0 km/h (0 Bft)
26.07.2012 23:40 16,4 C 79 % 0,0 l/m 0,0 km/h (0 Bft) S 180 12,7 C 16,4 C 0,0 km/h (0 Bft)
26.07.2012 23:45 16,3 C 79 % 0,0 l/m 0,0 km/h (0 Bft) S 180 12,6 C 16,6 C 0,0 km/h (0 Bft)
26.07.2012 23:50 16,3 C 79 % 0,0 l/m 0,0 km/h (0 Bft) NO 45 12,6 C 16,6 C 0,0 km/h (0 Bft)
26.07.2012 23:55 16,3 C 79 % 0,0 l/m 0,0 km/h (0 Bft) SO 135 12,6 C 16,5 C 0,0 km/h (0 Bft)
_ Min-Zeit 05:00 16:15 - 23:55 - - 05:00 05:15 23:55
Minimum _ 13,0 C 37 % - 0,0 km/h (0 Bft) - - 11,6 C 13,3 C 0,0 km/h (0 Bft)
_ Max-Zeit 15:05 06:20 23:55 13:10 - - 09:05 15:20 02:40
Maximum _ 30,9 C 92 % 0,0 l/m 4,5 km/h
O-SO (1 Bft)
- - 19,7 C 35,2 C 9,5 km/h
SO (2 Bft)
Durchschnitt _ 21,3 C 67 % #0,0 l/m 1,2 km/h (1 Bft) S - 14,2 C 23,5 C 1,7 km/h (1 Bft)